[[{"header":{"parameterUnit":"m.s-1","parameterCategory":1,"la1":30.2991,"la2":30.254,"lo1":-89.0895,"lo2":-89.0444,"dy":0.0017,"dx":0.0017,"nx":28,"ny":28,"refTime":"2026-02-27T03:00:00:Z","depth":0,"parameterNumber":2,"parameterNumberName":"U-component_of_WINDS"},"data":[0,0,0,0,0,0,0,0,0,0,0,0,0,0,0,0,0,0,0,0,0,0,0,0,0,0,0,0,0,0,0,0,0,0,0,0,0,0,0,0,0,0,0,0,0,0,0,0,0,0,0,0,0,0,0,0,0,0,0.5765,0.5765,0,0.5732,0.5732,0.5732,0.5706,0.5706,0.5706,0.5705,0.5671,0.567,0.567,0,0,0,0,0,0,0,0,0,0,0,0,0,0.5804,0.5804,0.5765,0.5765,0.5764,0.5732,0.5732,0.5731,0.5706,0.5706,0.5706,0.5705,0.5671,0.567,0.567,0,0,0,0,0,0,0,0,0,0,0,0,0,0.5781,0.5803,0.5765,0.5748,0.5746,0.5732,0.5732,0.5731,0.5706,0.5706,0.5706,0.5705,0.5672,0.5671,0.5669,0.567,0,0,0.5666,0.5666,0,0,0,0,0,0,0,0,0.5782,0.5779,0.5751,0.5749,0.5747,0.5723,0.5733,0.5711,0.5706,0.5721,0.5705,0.5705,0.5689,0.5686,0.5681,0.5669,0.5667,0.5666,0.5666,0.5665,0.5665,0,0,0,0,0,0,0,0.5784,0.5781,0.5752,0.575,0.5748,0.5741,0.5738,0.5729,0.5707,0.572,0.5718,0.5715,0.5687,0.5682,0.568,0.5667,0.5666,0.5665,0.5665,0.5664,0.5653,0.5654,0,0,0,0,0,0,0.5788,0.5782,0.5753,0.5751,0.5764,0.5741,0.5737,0.5731,0.5707,0.5703,0.5715,0.5714,0.5684,0.5681,0.5678,0.5678,0.5665,0.5664,0.5664,0.5653,0.5654,0.5654,0,0,0,0,0,0,0.5789,0.5786,0.5754,0.5766,0.5762,0.5741,0.5734,0.5731,0.5725,0.5704,0.5699,0.5713,0.5683,0.568,0.5673,0.5677,0.5664,0.5663,0.5653,0.5653,0.5654,0.5677,0,0,0,0,0,0,0.5791,0.5786,0.5787,0.5766,0.5761,0.575,0.5735,0.573,0.5723,0.5721,0.5701,0.5697,0.5683,0.5674,0.5672,0.5675,0.5662,0.5652,0.5653,0.5654,0.5676,0.5679,0.5681,0,0,0,0,0,0.5792,0.5795,0.5787,0.5784,0.5761,0.575,0.5747,0.5731,0.5724,0.5724,0.571,0.5698,0.5676,0.5674,0.567,0.5674,0.5652,0.5653,0.5653,0.5675,0.5678,0.5681,0,0,0,0,0,0,0.5816,0.5792,0.5783,0.5779,0.5767,0.5746,0.5745,0.5734,0.5723,0.5722,0.5702,0.5697,0.5692,0.5682,0.5679,0.5673,0.5663,0.5663,0.568,0.5683,0.5685,0.5688,0.5661,0,0,0,0,0,0.5821,0.5814,0.5793,0.5791,0.5786,0.5767,0.5761,0.575,0.5736,0.5731,0.5716,0.5703,0.5693,0.5687,0.5677,0.5674,0.5669,0.5674,0.5677,0.5679,0.5679,0.5677,0.5679,0.5656,0.5656,0.5656,0,0,0.5831,0.5817,0.5814,0.5796,0.5785,0.5778,0.5763,0.5756,0.5751,0.5729,0.5722,0.5711,0.5695,0.569,0.5687,0.5681,0.5684,0.568,0.5681,0.5681,0.5678,0.568,0.5682,0.5657,0.5657,0.5657,0,0,0.5846,0.5834,0.5832,0.5821,0.5805,0.5792,0.5792,0.5772,0.5764,0.5756,0.574,0.5733,0.5717,0.5706,0.5698,0.5709,0.5697,0.5706,0.5718,0.5716,0.5718,0.5719,0.5723,0.5725,0.5706,0.5706,0.5706,0,0.586,0.585,0.5832,0.5827,0.5819,0.58,0.5797,0.5788,0.5769,0.5764,0.5758,0.5737,0.5724,0.5717,0.5719,0.5714,0.5712,0.5708,0.5719,0.572,0.5721,0.5725,0.5727,0.5707,0.5707,0.5707,0.5707,0,0.5869,0.5861,0.5861,0.5844,0.5837,0.5833,0.5814,0.5809,0.5797,0.5785,0.5777,0.5762,0.5748,0.5745,0.5734,0.5736,0.5733,0.5723,0.5712,0.5725,0.5728,0.573,0.5709,0.5709,0.5708,0.5708,0,0,0.5898,0.5872,0.5872,0.5864,0.5844,0.5838,0.5833,0.582,0.5816,0.5803,0.5798,0.5785,0.5775,0.5767,0.5754,0.5752,0.5762,0.5743,0.5742,0.5747,0.5763,0.5771,0.5773,0.5753,0.5753,0.5754,0.5764,0,0.5911,0.5901,0.5885,0.5881,0.5874,0.5855,0.585,0.5838,0.5826,0.5818,0.5804,0.5795,0.5784,0.5778,0.5775,0.5761,0.5765,0.576,0.5749,0.5748,0.5754,0.5774,0.5783,0.5794,0.5765,0.5765,0.5766,0,0.5924,0.5914,0.5909,0.589,0.5886,0.5883,0.5869,0.5862,0.5847,0.5838,0.5828,0.5814,0.5807,0.5797,0.5787,0.5784,0.5778,0.577,0.577,0.5769,0.5759,0.5775,0.5797,0.5799,0.5767,0.5767,0.5767,0,0.5948,0.5932,0.5927,0.592,0.5898,0.5896,0.5886,0.5871,0.5864,0.5852,0.5847,0.5834,0.5827,0.5817,0.58,0.5794,0.5792,0.578,0.5784,0.5785,0.5786,0.5786,0.5808,0.578,0.578,0.578,0.578,0,0.5964,0.5962,0.5937,0.5934,0.5931,0.5912,0.5909,0.5898,0.5884,0.5878,0.586,0.5855,0.5832,0.5824,0.581,0.5804,0.58,0.5793,0.579,0.5795,0.5796,0.5792,0.5791,0.5781,0.5781,0.5781,0.5781,0,0.599,0.5973,0.5967,0.5946,0.5941,0.5939,0.5921,0.5917,0.5904,0.5897,0.5894,0.5873,0.5862,0.5844,0.5828,0.5818,0.5815,0.5809,0.5821,0.5819,0.5825,0.5825,0.5846,0.5847,0.5818,0.5818,0.5818,0,0.6002,0.6,0.5979,0.5974,0.5966,0.5958,0.5951,0.5931,0.5925,0.5907,0.5906,0.5894,0.5883,0.5867,0.585,0.5837,0.5831,0.5839,0.5829,0.5835,0.5832,0.5833,0.5832,0.5842,0.5842,0.5842,0.5843,0,0.6025,0.6017,0.6008,0.5996,0.5989,0.5978,0.5967,0.5964,0.5941,0.5935,0.5924,0.5916,0.59,0.5888,0.5873,0.5862,0.5849,0.5846,0.5846,0.5853,0.586,0.5857,0.5828,0.5846,0.5845,0.5845,0.5845,0.5845,0.6045,0.6043,0.6028,0.6018,0.6008,0.5998,0.5993,0.5979,0.597,0.5956,0.5945,0.5935,0.5919,0.5897,0.5887,0.5879,0.5873,0.5873,0.5874,0.5874,0.5877,0.5861,0.5876,0.5876,0.5875,0.5875,0.5875,0,0.6068,0.6058,0.6049,0.6034,0.6027,0.6015,0.6001,0.5996,0.5988,0.5974,0.5964,0.5952,0.594,0.5922,0.5909,0.5906,0.5899,0.5903,0.5903,0.5901,0.5883,0.5884,0.5908,0.5908,0.5908,0.5908,0.5908,0.5908,0.608,0.6075,0.6065,0.6055,0.6044,0.6035,0.6028,0.6018,0.6008,0.5995,0.5985,0.5974,0.5958,0.5944,0.5932,0.5927,0.5923,0.5929,0.5922,0.5905,0.5902,0.59,0.5901,0.5928,0.5928,0.5941,0.5941,0.5942]},{"header":{"parameterUnit":"m.s-1","parameterCategory":1,"la1":30.2991,"la2":30.254,"lo1":-89.0895,"lo2":-89.0444,"dy":0.0017,"dx":0.0017,"nx":28,"ny":28,"refTime":"2026-02-27T03:00:00:Z","depth":0,"parameterNumber":3,"parameterNumberName":"V-component_of_WINDS"},"data":[0,0,0,0,0,0,0,0,0,0,0,0,0,0,0,0,0,0,0,0,0,0,0,0,0,0,0,0,0,0,0,0,0,0,0,0,0,0,0,0,0,0,0,0,0,0,0,0,0,0,0,0,0,0,0,0,0,0,2.4108,2.4109,0,2.418,2.4181,2.4182,2.42,2.42,2.4199,2.4199,2.4271,2.4273,2.4276,0,0,0,0,0,0,0,0,0,0,0,0,0,2.3983,2.3985,2.4108,2.4109,2.411,2.418,2.4181,2.4182,2.42,2.42,2.4199,2.4199,2.427,2.4273,2.4276,0,0,0,0,0,0,0,0,0,0,0,0,0,2.4044,2.3986,2.4108,2.4127,2.413,2.418,2.4181,2.4182,2.4201,2.42,2.4199,2.4199,2.4269,2.4273,2.4276,2.4311,0,0,2.4287,2.4288,0,0,0,0,0,0,0,0,2.4041,2.4049,2.4124,2.4126,2.4129,2.4181,2.4163,2.4225,2.4201,2.4174,2.4199,2.4198,2.4241,2.4247,2.4262,2.4314,2.4318,2.4287,2.4289,2.4291,2.4292,0,0,0,0,0,0,0,2.4036,2.4046,2.4136,2.4125,2.4128,2.4132,2.414,2.4175,2.421,2.4176,2.4177,2.4186,2.4243,2.4259,2.4264,2.4319,2.4287,2.429,2.4292,2.4294,2.4403,2.4403,0,0,0,0,0,0,2.4029,2.4042,2.4134,2.4139,2.4082,2.4134,2.4143,2.4165,2.421,2.4216,2.4186,2.4186,2.4253,2.426,2.4266,2.4311,2.4291,2.4294,2.4296,2.4402,2.4403,2.4404,0,0,0,0,0,0,2.4026,2.4037,2.4131,2.4091,2.4103,2.4137,2.4161,2.4166,2.4183,2.4218,2.4224,2.4197,2.4253,2.4262,2.43,2.4313,2.4296,2.4299,2.4401,2.4402,2.4403,2.4399,0,0,0,0,0,0,2.4023,2.4036,2.4051,2.4091,2.4105,2.4164,2.4162,2.4168,2.4189,2.419,2.4229,2.4235,2.4253,2.4295,2.4303,2.4318,2.4301,2.44,2.4401,2.4403,2.4398,2.44,2.4402,0,0,0,0,0,2.4018,2.4046,2.4051,2.4062,2.4124,2.4165,2.4173,2.4194,2.419,2.4204,2.4227,2.4234,2.431,2.4298,2.4308,2.4324,2.4399,2.4401,2.4403,2.4398,2.44,2.4402,0,0,0,0,0,0,2.4006,2.4052,2.4058,2.41,2.4129,2.4168,2.4187,2.4196,2.4226,2.4225,2.4249,2.4257,2.4294,2.4313,2.4299,2.436,2.4354,2.4358,2.4347,2.4349,2.4351,2.4347,2.4304,0,0,0,0,0,2.4008,2.4039,2.4077,2.411,2.4124,2.4153,2.4172,2.4185,2.4215,2.4227,2.4253,2.4281,2.4312,2.4331,2.4361,2.44,2.4409,2.4416,2.4417,2.4419,2.4422,2.4444,2.4448,2.441,2.441,2.4409,0,0,2.4013,2.4042,2.406,2.4108,2.4132,2.4162,2.4163,2.4195,2.4218,2.4232,2.4271,2.4289,2.4323,2.4362,2.438,2.4378,2.4434,2.4421,2.4422,2.4425,2.4446,2.445,2.4453,2.4411,2.4411,2.441,0,0,2.4038,2.4063,2.4094,2.4117,2.4153,2.4172,2.4179,2.4217,2.4231,2.427,2.4281,2.4307,2.4359,2.4382,2.4401,2.4432,2.444,2.4441,2.4451,2.4472,2.4475,2.4478,2.4489,2.4493,2.4444,2.4444,2.4444,0,2.404,2.4087,2.4108,2.414,2.4161,2.4175,2.4206,2.4227,2.4271,2.4284,2.4281,2.4347,2.437,2.4414,2.4422,2.4436,2.4445,2.4438,2.4473,2.4476,2.4479,2.449,2.4495,2.4444,2.4444,2.4444,2.4444,0,2.4087,2.412,2.414,2.4182,2.4205,2.4236,2.4261,2.4281,2.4292,2.431,2.4349,2.4377,2.4413,2.4424,2.4434,2.447,2.4467,2.4468,2.4463,2.4482,2.4493,2.4498,2.4444,2.4444,2.4444,2.4444,0,0,2.4109,2.4162,2.4169,2.4188,2.4228,2.4253,2.4284,2.4319,2.4336,2.4365,2.4391,2.4434,2.4435,2.4456,2.4469,2.4487,2.4511,2.4485,2.4487,2.449,2.4551,2.4551,2.4556,2.4515,2.4516,2.4516,2.4549,0,2.414,2.4198,2.4216,2.4264,2.4293,2.4306,2.4333,2.4359,2.4377,2.4404,2.4423,2.4453,2.4452,2.4464,2.4483,2.4504,2.4523,2.4501,2.4539,2.4541,2.4533,2.4562,2.4563,2.4592,2.4553,2.4554,2.4554,0,2.4185,2.4215,2.4265,2.4301,2.4314,2.4338,2.4371,2.4397,2.4427,2.4438,2.4461,2.4472,2.4503,2.4495,2.4539,2.4523,2.4539,2.4552,2.4553,2.4559,2.455,2.457,2.4602,2.4607,2.4561,2.4561,2.456,0,2.4197,2.425,2.4287,2.4302,2.4344,2.4361,2.4379,2.4408,2.4428,2.4457,2.447,2.4501,2.4519,2.4542,2.4561,2.4553,2.4603,2.4596,2.4613,2.4613,2.4625,2.4624,2.4661,2.4632,2.4632,2.4632,2.4632,0,2.4231,2.4261,2.4293,2.4316,2.435,2.437,2.4403,2.4421,2.4447,2.4473,2.4484,2.4508,2.4531,2.4557,2.4572,2.4606,2.4613,2.4623,2.4627,2.4623,2.4622,2.4635,2.4634,2.4633,2.4633,2.4633,2.4633,0,2.4251,2.4274,2.4315,2.4351,2.436,2.4384,2.4414,2.4436,2.4453,2.4486,2.4495,2.4522,2.4553,2.4574,2.4614,2.4623,2.4661,2.4663,2.4651,2.4653,2.467,2.4668,2.4718,2.4726,2.469,2.4691,2.4691,0,2.4272,2.4296,2.4335,2.4353,2.4372,2.4401,2.4421,2.4441,2.4462,2.4497,2.4514,2.4547,2.4574,2.4623,2.4646,2.4676,2.468,2.4696,2.4685,2.468,2.4682,2.4681,2.4684,2.4698,2.4698,2.4698,2.4699,0,2.4308,2.4317,2.4347,2.4379,2.4403,2.443,2.4456,2.447,2.4495,2.4517,2.4549,2.457,2.4611,2.4643,2.4675,2.4692,2.47,2.4701,2.4707,2.4704,2.4697,2.4702,2.4657,2.4701,2.47,2.47,2.47,2.47,2.433,2.4352,2.4382,2.4414,2.4436,2.446,2.4483,2.4502,2.453,2.4566,2.4575,2.4609,2.4637,2.4681,2.4698,2.4725,2.4723,2.4731,2.4733,2.4736,2.4736,2.4691,2.473,2.473,2.473,2.473,2.473,0,2.4367,2.4387,2.4416,2.4453,2.4478,2.4482,2.4511,2.4531,2.4561,2.4587,2.4613,2.465,2.468,2.4705,2.4736,2.4752,2.4756,2.4759,2.4759,2.4763,2.4736,2.4728,2.4756,2.4756,2.4756,2.4756,2.4756,2.4756,2.439,2.4427,2.444,2.4487,2.4506,2.454,2.4557,2.4578,2.4599,2.464,2.4666,2.4681,2.4706,2.4738,2.4766,2.4772,2.4784,2.4787,2.4794,2.4768,2.4765,2.4763,2.4756,2.4789,2.4789,2.4819,2.482,2.482]}]]